Miscellaneous Local Product
Issued by NWS Hastings, NE

Home | Current Version | Previous Version | Text Only | Print | Product List | Glossary Off
Versions: 1 2 3 4 5 6 7 8 9 10 11 12 13 14 15 16 17 18 19 20 21 22 23 24 25 26 27 28 29 30 31 32 33 34 35 36 37 38 39 40 41 42 43 44 45 46 47 48 49 50

074
AXUS43 KGID 211602
MISGRI

GID CWA HOURLY WEATHER ROUNDUP
NATIONAL WEATHER SERVICE HASTINGS NE
1100 AM CDT SUN MAY 21 2017

NOTE: "FAIR" INDICATES FEW OR NO CLOUDS BELOW 12,000 FEET WITH NO
SIGNIFICANT WEATHER AND/OR OBSTRUCTIONS TO VISIBILITY.

...SOUTH CENTRAL NEBRASKA...

CITY           SKY/WX    TMP DP  RH WIND       PRES   REMARKS
GRAND ISLAND   SUNNY     56  42  59 W9        30.13R
HASTINGS       SUNNY     57  40  52 W10       30.14R
KEARNEY        SUNNY     61  39  44 W6        30.14R
ORD            SUNNY     55  40  56 N13       30.10R
YORK           SUNNY     54  41  62 NW12      30.13R
AURORA         SUNNY     56  42  59 NW10      30.13R
LEXINGTON      SUNNY     58  43  58 NW12      30.15R
HOLDREGE       SUNNY     59  41  50 W9        30.15R
HEBRON         SUNNY     56  42  58 W8        30.15S

...NEBRASKA PANHANDLE...

CITY           SKY/WX    TMP DP  RH WIND       PRES   REMARKS
CHADRON        MOSUNNY   60  42  51 NW13      30.13S
ALLIANCE       SUNNY     57  36  45 N10       30.15R
SCOTTSBLUFF    SUNNY     57  41  55 W7        30.17S
SIDNEY         SUNNY     58  39  49 NW7G20    30.19R

...WESTERN AND NORTH CENTRAL NEBRASKA...

CITY           SKY/WX    TMP DP  RH WIND       PRES   REMARKS
VALENTINE      SUNNY     60  31  33 NW14      30.09R
AINSWORTH      SUNNY     56  38  50 NW13      30.10R
ONEILL         SUNNY     53  38  57 NW15G23   30.09R
BROKEN BOW     SUNNY     59  42  53 W10       30.11R
IMPERIAL       SUNNY     62  42  47 NW10      30.17R
NORTH PLATTE   SUNNY     60  44  55 W8        30.15R
MCCOOK         SUNNY     61  47  59 W9        30.16S

...EASTERN NEBRASKA...

CITY           SKY/WX    TMP DP  RH WIND       PRES   REMARKS
NORFOLK        MOSUNNY   52  39  61 NW18G28   30.06R
SO SIOUX CITY  CLOUDY    48  40  73 NW15      30.05R
TEKAMAH        PTSUNNY   50  40  68 NW20G29   30.07R
COLUMBUS       SUNNY     54  39  58 NW12      30.11R
ALBION         SUNNY     56  40  56 NW15      30.09R
OMAHA EPPLEY   PTSUNNY   53  39  59 NW16G28   30.08R
OFFUTT AFB     MOSUNNY   55  40  59 W15G23    30.08R
MILLARD        PTSUNNY   55  43  63 NW18G24   30.09R
LINCOLN        SUNNY     57  38  48 W16G23    30.13R
NEBRASKA CITY  SUNNY     54  39  56 W18       30.11R
BEATRICE       SUNNY     56  44  64 W10G17    30.14R
FALLS CITY     SUNNY     57  43  59 W13       30.12R

...NORTHERN KANSAS...

CITY           SKY/WX    TMP DP  RH WIND       PRES   REMARKS
GOODLAND       MOSUNNY   63  45  51 NW8       30.18S
HILL CITY      SUNNY     66  44  45 W10       30.17S
NORTON         SUNNY     63  37  39 SW8       30.17R
PHILLIPSBURG   SUNNY     64  45  48 NW7       30.17S
SMITH CENTER   SUNNY     61  45  55 W7        30.17S
HAYS           SUNNY     62  45  53 NW6       30.18S
RUSSELL        SUNNY     61  46  57 SW5       30.17R
CONCORDIA      SUNNY     57  46  66 W5        30.16S
SALINA         SUNNY     64  48  56 W6        30.18S
TOPEKA         SUNNY     58  47  66 W8        30.17S



USA.gov is the U.S. government's official web portal to all federal, state and local government web resources and services.